When you browse on this site, cookies collect data to enhance your experience and personalize the content and advertising you see.
Visit our Privacy Policy to learn more. By continuing to use the site, you agree to this use of cookies and data.
  • In Hungary
  • List of Countries
  • For 7 days
  • Water Temperature
  • Satellite Maps
  • Weather Map
  • News
  • Weather Widgets
  • user-avatar
    Login

    Hourly Weather Guanare

    Today, 19 January, Saturday

    Time Temperature Precipitation Wind Pressure Humidity
    00:00 +27°C° 0 mm 2 mps 742 mmHg 57%
    01:00 +27°C° 0 mm 1 mps 742 mmHg 58%
    02:00 +27°C° 0 mm 1 mps 742 mmHg 59%
    03:00 +27°C° 0 mm 1 mps 742 mmHg 60%
    04:00 +27°C° 0 mm 1 mps 742 mmHg 62%
    05:00 +26°C° 0.2 mm 1 mps 743 mmHg 66%
    06:00 +26°C° 0.2 mm 1 mps 743 mmHg 69%
    07:00 +26°C° 0.2 mm 1 mps 744 mmHg 73%
    08:00 +27°C° 0.1 mm 1 mps 744 mmHg 70%
    09:00 +28°C° 0.1 mm 1 mps 744 mmHg 66%
    10:00 +29°C° 0.1 mm 1 mps 744 mmHg 63%
    11:00 +31°C° 0 mm 1 mps 744 mmHg 55%
    12:00 +33°C° 0 mm 1 mps 743 mmHg 47%
    13:00 +35°C° 0 mm 1 mps 742 mmHg 40%
    14:00 +35°C° 0 mm 1 mps 741 mmHg 39%
    15:00 +35°C° 0 mm 1 mps 741 mmHg 38%
    16:00 +35°C° 0 mm 1 mps 740 mmHg 38%
    17:00 +33°C° 0 mm 1 mps 740 mmHg 43%
    18:00 +31°C° 0 mm 1 mps 740 mmHg 48%
    19:00 +28°C° 0 mm 2 mps 741 mmHg 53%
    20:00 +28°C° 0 mm 2 mps 741 mmHg 54%
    21:00 +28°C° 0 mm 2 mps 742 mmHg 54%
    22:00 +27°C° 0 mm 2 mps 742 mmHg 54%
    23:00 +27°C° 0 mm 2 mps 742 mmHg 54%

    Tomorrow, 20 January, Sunday

    Time Temperature Precipitation Wind Pressure Humidity
    00:00 +27°C° 0 mm 2 mps 742 mmHg 53%
    01:00 +26°C° 0 mm 2 mps 742 mmHg 53%
    02:00 +26°C° 0 mm 1 mps 742 mmHg 54%
    03:00 +26°C° 0 mm 1 mps 742 mmHg 56%
    04:00 +26°C° 0 mm 1 mps 742 mmHg 57%
    05:00 +26°C° 0 mm 1 mps 742 mmHg 58%
    06:00 +26°C° 0 mm 1 mps 743 mmHg 59%
    07:00 +26°C° 0 mm 1 mps 744 mmHg 60%
    08:00 +28°C° 0 mm 1 mps 744 mmHg 55%
    09:00 +30°C° 0 mm 1 mps 744 mmHg 51%
    10:00 +32°C° 0 mm 2 mps 744 mmHg 46%
    11:00 +33°C° 0 mm 1 mps 744 mmHg 44%
    12:00 +34°C° 0 mm 1 mps 743 mmHg 41%
    13:00 +35°C° 0 mm 1 mps 742 mmHg 38%
    14:00 +35°C° 0 mm 1 mps 741 mmHg 37%
    15:00 +35°C° 0 mm 1 mps 740 mmHg 36%
    16:00 +35°C° 0 mm 1 mps 740 mmHg 36%
    17:00 +33°C° 0 mm 1 mps 740 mmHg 40%
    18:00 +31°C° 0 mm 1 mps 741 mmHg 45%
    19:00 +29°C° 0 mm 1 mps 741 mmHg 50%
    20:00 +28°C° 0 mm 2 mps 742 mmHg 51%
    21:00 +28°C° 0 mm 2 mps 742 mmHg 51%
    22:00 +27°C° 0 mm 2 mps 742 mmHg 52%
    23:00 +27°C° 0 mm 2 mps 742 mmHg 52%

    Day after tomorrow, 21 January, Monday

    Time Temperature Precipitation Wind Pressure Humidity
    00:00 +27°C° 0 mm 2 mps 742 mmHg 52%
    01:00 +27°C° 0 mm 1 mps 742 mmHg 52%
    02:00 +27°C° 0 mm 1 mps 742 mmHg 53%
    03:00 +27°C° 0 mm 1 mps 742 mmHg 55%
    04:00 +27°C° 0 mm 1 mps 742 mmHg 56%
    05:00 +27°C° 0 mm 1 mps 742 mmHg 58%
    06:00 +27°C° 0 mm 1 mps 743 mmHg 59%
    07:00 +27°C° 0 mm 1 mps 744 mmHg 60%
    08:00 +29°C° 0 mm 1 mps 744 mmHg 55%
    09:00 +31°C° 0 mm 2 mps 745 mmHg 50%
    10:00 +34°C° 0 mm 2 mps 745 mmHg 45%
    11:00 +35°C° 0 mm 2 mps 744 mmHg 43%
    12:00 +36°C° 0 mm 2 mps 743 mmHg 40%
    13:00 +37°C° 0 mm 2 mps 742 mmHg 37%
    14:00 +37°C° 0 mm 2 mps 742 mmHg 37%
    15:00 +37°C° 0 mm 2 mps 741 mmHg 36%
    16:00 +37°C° 0 mm 2 mps 740 mmHg 36%
    17:00 +35°C° 0 mm 2 mps 741 mmHg 41%
    18:00 +32°C° 0 mm 1 mps 741 mmHg 46%
    19:00 +30°C° 0 mm 1 mps 742 mmHg 50%
    20:00 +29°C° 0 mm 1 mps 742 mmHg 52%
    21:00 +28°C° 0 mm 1 mps 743 mmHg 53%
    22:00 +28°C° 0 mm 1 mps 743 mmHg 55%
    23:00 +28°C° 0 mm 1 mps 743 mmHg 56%

    22 January, Tuesday

    Time Temperature Precipitation Wind Pressure Humidity
    00:00 +27°C° 0 mm 1 mps 743 mmHg 56%
    01:00 +27°C° 0 mm 1 mps 743 mmHg 57%
    02:00 +27°C° 0 mm 1 mps 743 mmHg 58%
    03:00 +26°C° 0 mm 1 mps 743 mmHg 60%
    04:00 +26°C° 0 mm 1 mps 742 mmHg 61%
    05:00 +26°C° 0 mm 1 mps 743 mmHg 61%
    06:00 +26°C° 0 mm 1 mps 744 mmHg 61%
    07:00 +27°C° 0 mm 1 mps 744 mmHg 61%
    08:00 +28°C° 0 mm 1 mps 745 mmHg 56%
    09:00 +30°C° 0 mm 2 mps 745 mmHg 52%
    10:00 +31°C° 0 mm 2 mps 745 mmHg 47%
    11:00 +34°C° 0 mm 2 mps 744 mmHg 44%
    12:00 +35°C° 0 mm 2 mps 743 mmHg 40%
    13:00 +36°C° 0 mm 2 mps 742 mmHg 37%
    14:00 +36°C° 0 mm 2 mps 742 mmHg 36%
    15:00 +36°C° 0 mm 2 mps 741 mmHg 36%
    16:00 +36°C° 0 mm 2 mps 740 mmHg 35%
    17:00 +34°C° 0 mm 2 mps 741 mmHg 40%
    18:00 +31°C° 0 mm 2 mps 741 mmHg 46%
    19:00 +28°C° 0 mm 1 mps 742 mmHg 51%
    20:00 +28°C° 0 mm 2 mps 742 mmHg 52%
    21:00 +27°C° 0 mm 2 mps 743 mmHg 53%
    22:00 +27°C° 0 mm 2 mps 743 mmHg 54%
    23:00 +26°C° 0 mm 1 mps 743 mmHg 54%

    23 January, Wednesday

    Time Temperature Precipitation Wind Pressure Humidity
    00:00 +26°C° 0 mm 1 mps 743 mmHg 55%
    01:00 +25°C° 0 mm 1 mps 743 mmHg 56%
    02:00 +25°C° 0 mm 1 mps 743 mmHg 56%
    03:00 +25°C° 0 mm 1 mps 743 mmHg 57%
    04:00 +25°C° 0 mm 1 mps 743 mmHg 57%
    05:00 +25°C° 0 mm 1 mps 743 mmHg 57%
    06:00 +25°C° 0 mm 1 mps 744 mmHg 58%
    07:00 +26°C° 0 mm 1 mps 745 mmHg 58%
    08:00 +28°C° 0 mm 1 mps 745 mmHg 53%
    09:00 +30°C° 0 mm 1 mps 745 mmHg 49%
    10:00 +32°C° 0 mm 2 mps 745 mmHg 44%
    11:00 +34°C° 0 mm 2 mps 744 mmHg 42%
    12:00 +34°C° 0 mm 2 mps 743 mmHg 41%
    13:00 +35°C° 0 mm 2 mps 742 mmHg 39%
    14:00 +35°C° 0 mm 2 mps 741 mmHg 39%
    15:00 +35°C° 0 mm 2 mps 741 mmHg 39%
    16:00 +35°C° 0 mm 2 mps 740 mmHg 39%
    17:00 +32°C° 0 mm 2 mps 741 mmHg 45%
    18:00 +30°C° 0 mm 2 mps 741 mmHg 50%
    19:00 +28°C° 0 mm 2 mps 741 mmHg 55%
    20:00 +27°C° 0 mm 2 mps 742 mmHg 53%
    21:00 +27°C° 0 mm 2 mps 742 mmHg 52%
    22:00 +27°C° 0 mm 2 mps 743 mmHg 50%
    23:00 +27°C° 0 mm 2 mps 743 mmHg 51%

    24 January, Thursday

    Time Temperature Precipitation Wind Pressure Humidity
    00:00 +26°C° 0 mm 2 mps 742 mmHg 53%
    01:00 +26°C° 0 mm 1 mps 742 mmHg 55%
    02:00 +26°C° 0 mm 1 mps 742 mmHg 57%
    03:00 +26°C° 0 mm 1 mps 742 mmHg 60%
    04:00 +26°C° 0 mm 1 mps 742 mmHg 62%
    05:00 +26°C° 0 mm 1 mps 743 mmHg 62%
    06:00 +26°C° 0 mm 1 mps 743 mmHg 62%
    07:00 +26°C° 0 mm 1 mps 744 mmHg 63%
    08:00 +28°C° 0 mm 1 mps 744 mmHg 57%
    09:00 +30°C° 0 mm 1 mps 744 mmHg 52%
    10:00 +32°C° 0 mm 2 mps 744 mmHg 47%
    11:00 +34°C° 0 mm 2 mps 743 mmHg 44%
    12:00 +34°C° 0 mm 2 mps 742 mmHg 42%
    13:00 +35°C° 0 mm 2 mps 741 mmHg 40%
    14:00 +35°C° 0 mm 2 mps 741 mmHg 38%
    15:00 +34°C° 0 mm 1 mps 740 mmHg 37%
    16:00 +35°C° 0 mm 1 mps 740 mmHg 35%
    17:00 +33°C° 0 mm 1 mps 740 mmHg 41%
    18:00 +30°C° 0 mm 2 mps 740 mmHg 46%
    19:00 +28°C° 0 mm 2 mps 740 mmHg 51%
    20:00 +28°C° 0 mm 2 mps 741 mmHg 52%
    21:00 +27°C° 0 mm 2 mps 741 mmHg 53%
    22:00 +27°C° 0 mm 1 mps 742 mmHg 54%
    23:00 +27°C° 0 mm 1 mps 742 mmHg 54%
    Show more